Regional Weather Roundup
Issued by NWS Kansas City/Pleasant Hill, MO

Home | Current Version | Previous Version | Graphics & Text | Print | Product List | Glossary Off
Versions: 1 2 3 4 5 6 7 8 9 10 11 12 13 14 15 16 17 18 19 20 21 22 23 24 25 26 27 28 29 30 31 32 33 34 35 36 37 38 39 40 41 42 43 44 45 46 47 48 49 50

000
ASUS43 KEAX 292011
RWREAX

WEATHER ROUNDUP FOR EASTERN KANSAS AND NORTHWEST MISSOURI
NATIONAL WEATHER SERVICE KANSAS CITY/PLEASANT HILL MO
300 PM CDT FRI MAY 29 2015

KSZ040-057-103>105-MOZ028-029-037-043-292100-
...KANSAS CITY METROPOLITAN AREA...

CITY           SKY/WX    TMP DP  RH WIND       PRES   REMARKS
K.C. INTL      LGT RAIN  68  66  93 S13       29.98F
K.C. DOWNTOWN  LGT RAIN  70  65  84 S6        29.97F
LEES SUMMIT    LGT RAIN  69  66  90 SW5       29.99F
OLATHE - IXD   LGT RAIN  68  66  93 S3        30.00F FOG
OLATHE - OJC   LGT RAIN  68  66  93 SW5       29.99F
LAWRENCE       LGT RAIN  69  66  90 S9        29.97F

$$

MOZ001>008-011>017-020>025-030>033-038>040-044>046-053-054-292100-
...NORTHERN AND CENTRAL MISSOURI...

CITY           SKY/WX    TMP DP  RH WIND       PRES   REMARKS
ST. JOSEPH     CLOUDY    69  65  86 S8        29.97F
MOSBY          LGT RAIN  70  66  88 SE3       29.98F
WARRENSBURG    CLOUDY    70  64  83 S3        29.99F
WHITEMAN AFB   CLOUDY    73  65  77 SW5       29.99F
CLINTON        CLOUDY    73  68  83 S3        30.00F
SEDALIA        CLOUDY    74  66  76 W5        30.01F
WARSAW         FAIR      73  64  73 CALM      30.01F
CHILLICOTHE      N/A     71  66  84 SW5       29.99F
KIRKSVILLE     CLOUDY    74  66  76 SW8       30.00F

$$

MOZ041-047>049-056>058-063>065-088>090-097-292100-
...EASTERN AND SOUTHERN MISSOURI...

CITY           SKY/WX    TMP DP  RH WIND       PRES   REMARKS
ST. LOUIS INTL PTSUNNY   83  68  60 SW8       30.00F
SPIRIT OF STL  PTSUNNY   83  68  60 W12       29.98F
COLUMBIA       CLOUDY    71  65  81 W5        30.01F
JEFFERSON CITY CLOUDY    75  63  66 VRB3      30.00F
ROLLA          PTSUNNY   73  66  78 CALM      30.02F
LEBANON        CLOUDY    75  66  73 NE7       30.02F
OSAGE BEACH    PTSUNNY   73  63  68 E3        30.01F
SPRINGFIELD    PTSUNNY   77  66  68 E8        29.99F
BRANSON        PTSUNNY   75  68  78 E8        30.00F
NEVADA         LGT RAIN  72  68  88 CALM      30.02S
JOPLIN         CLOUDY    72  66  81 NE7       29.98F
WEST PLAINS    PTSUNNY   82  67  60 SE6       30.01F
MALDEN         MOSUNNY   88  68  51 S8        30.01F HX  91

$$

IAZ060-094-KSZ022-034>040-054-083-096-NEZ052-066-093-292100-
...KANSAS...SOUTHEAST NEBRASKA AND IOWA...

CITY           SKY/WX    TMP DP  RH WIND       PRES   REMARKS
TOPEKA         CLOUDY    70  67  90 S10       29.97F
MANHATTAN      CLOUDY    75  67  76 S8        29.95F
EMPORIA        CLOUDY    72  66  81 S12       29.97F
CHANUTE        LGT RAIN  69  67  93 SE6       29.99F
WICHITA        CLOUDY    77  63  61 CALM      29.96F
OMAHA          CLOUDY    76  59  55 SW12      29.91S
LINCOLN        CLOUDY    78  60  53 SW10      29.93F
FALLS CITY     CLOUDY    71  65  81 S10       29.95F
LAMONI         CLOUDY    70  64  81 SW14      29.96F
DES MOINES     CLOUDY    73  62  68 SW17      29.92F

$$




USA.gov is the U.S. government's official web portal to all federal, state and local government web resources and services.